Miscellaneous Local Product
Issued by NWS Hastings, NE

Home | Current Version | Previous Version | Text Only | Print | Product List | Glossary Off
Versions: 1 2 3 4 5 6 7 8 9 10 11 12 13 14 15 16 17 18 19 20 21 22 23 24 25 26 27 28 29 30 31 32 33 34 35 36 37 38 39 40 41 42 43 44 45 46 47 48 49 50

000
AXUS43 KGID 261302
MISGRI

GID CWA HOURLY WEATHER ROUNDUP
NATIONAL WEATHER SERVICE HASTINGS NE
800 AM CDT FRI AUG 26 2016

NOTE: "FAIR" INDICATES FEW OR NO CLOUDS BELOW 12,000 FEET WITH NO
SIGNIFICANT WEATHER AND/OR OBSTRUCTIONS TO VISIBILITY.

...SOUTH CENTRAL NEBRASKA...

CITY           SKY/WX    TMP DP  RH WIND       PRES   REMARKS
GRAND ISLAND   CLOUDY    57  56  96 CALM      30.17F
HASTINGS       CLOUDY    59  55  87 E5        30.17F
KEARNEY        CLOUDY    57  54  88 NE3       30.17S
ORD            MOSUNNY   52  49  89 NW3       30.17F
YORK           LGT RAIN  59  57  94 E8        30.16F
AURORA         CLOUDY    58  58  99 E5        30.16F
LEXINGTON      CLOUDY    55  53  95 CALM      30.18F
HOLDREGE       CLOUDY    59  57  92 CALM      30.17F FOG
HEBRON         CLOUDY    61  59  93 N5        30.14F

...NEBRASKA PANHANDLE...

CITY           SKY/WX    TMP DP  RH WIND       PRES   REMARKS
CHADRON        CLOUDY    54  52  93 NW6       30.12S
ALLIANCE       LGT RAIN  55  51  86 SE12      30.14S
SCOTTSBLUFF    PTCLDY    56  51  84 E9        30.13S
SIDNEY         PTCLDY    58  50  75 SE13      30.16F

...WESTERN AND NORTH CENTRAL NEBRASKA...

CITY           SKY/WX    TMP DP  RH WIND       PRES   REMARKS
VALENTINE      CLOUDY    52  46  80 CALM      30.18F
AINSWORTH      CLOUDY    52  51  97 CALM      30.18F
ONEILL         MOSUNNY   53  51  94 CALM      30.19S
BROKEN BOW     MOSUNNY   52  51  97 CALM      30.18F
IMPERIAL       CLOUDY    56  53  90 SE5       30.18S
NORTH PLATTE   FOG       52  51  97 E6        30.18F VSB 1/4
MCCOOK         CLOUDY    57  55  93 E6        30.17F

...EASTERN NEBRASKA...

CITY           SKY/WX    TMP DP  RH WIND       PRES   REMARKS
NORFOLK        CLOUDY    55  53  93 CALM      30.17S
SO SIOUX CITY  CLOUDY    56  54  93 CALM      30.18S
TEKAMAH        CLOUDY    58  56  93 CALM      30.17F
COLUMBUS       CLOUDY    55  46  71 CALM      30.17F
ALBION         MOSUNNY   54  52  93 CALM      30.18S
OMAHA EPPLEY   CLOUDY    62  57  83 NW5       30.17R
OFFUTT AFB     CLOUDY    63  59  87 E6        30.16R
MILLARD        CLOUDY    64  59  85 CALM      30.17S
LINCOLN        CLOUDY    62  59  90 N3        30.16F
NEBRASKA CITY  CLOUDY    61  61 100 NE7       30.15F
BEATRICE       CLOUDY    62  60  94 NE8       30.13F
FALLS CITY     LGT RAIN  65  64  97 CALM      30.12S

...NORTHERN KANSAS...

CITY           SKY/WX    TMP DP  RH WIND       PRES   REMARKS
GOODLAND       CLOUDY    58  55  90 SE6       30.17F
HILL CITY      CLOUDY    61  59  93 CALM      30.15F
NORTON         CLOUDY    59  54  82 NE3       30.16S
SMITH CENTER   SUNNY     61  57  88 NE6       30.13S
BELOIT         CLOUDY    61  59  94 NE7       30.09F
HAYS           CLOUDY    63  54  72 NE5       30.12F
RUSSELL        CLOUDY    62  60  93 NE7       30.09F
CONCORDIA      CLOUDY    63  61  93 N6        30.11F
SALINA         PTSUNNY   66  64  93 N9        30.08S
TOPEKA         CLOUDY    69  67  93 E6        30.10F



USA.gov is the U.S. government's official web portal to all federal, state and local government web resources and services.